Location: Chervonnoye
(48.6000°N, 34.4000°E)
Time: 00:57:51
(UTC+00:00)

NOAA 15 - Pass Details

Date: 28 November 2021
Orbit: 797 x 812 km, 98.7° (Epoch: 17 January)

Event Time Altitude Azimuth Distance (km) Brightness Sun altitude
Rises 18:20:35 0° 227° (SW) 3,323 8.1 -43.6°
Reaches altitude 10° 18:25:56 10° 272° (W) 2,397 7.6 -44.5°
Maximum altitude 18:26:17 10° 276° (W) 2,393 7.6 -44.5°
Drops below altitude 10° 18:26:38 10° 280° (W) 2,398 7.6 -44.6°
Sets 18:32:01 0° 326° (NW) 3,333 8.4 -45.4°
